Hourly Data Report for July 04, 2022

KUGAARUK CLIMATE
NUNAVUT
Current Station Operator: ECCC - MSC

68°32'15.060" N
89°47'47.020" W
15.80 m
2303094
71407
NBB

Download Data

Hourly Data (July 2022)
Hourly Data Report for July 4, 2022
TIME
LST
Temp Definition
°C
Dew Point Definition
°C
Rel Hum Definition
%
Precip. Amount Definition
mm

Wind Dir Definition
10's deg

Wind Spd Definition
km/h
Visibility Definition
km
Stn Press Definition
kPa
Hmdx Definition


Wind Chill Definition


Weather Definition


00:00 4.3 2.9 91 0.0 1 17   101.69     LegendNANA
01:00 4.0 2.2 88 0.0 34 22   101.68     LegendNANA
02:00 2.8 2.0 94 0.0 2 22   101.67     LegendNANA
03:00 2.8 1.2 90 0.0 36 20   101.68     LegendNANA
04:00 3.4 2.0 91 0.0 35 20   101.67     LegendNANA
05:00 3.1 1.7 90 0.0 36 22   101.67     LegendNANA
06:00 4.8 2.1 83 0.0 33 18   101.62     LegendNANA
07:00 7.3 2.8 73 0.0 33 25   101.57     LegendNANA
08:00 7.7 2.4 69 0.0 34 36   101.53     LegendNANA
09:00 8.3 1.9 64 0.0 34 34   101.50     LegendNANA
10:00 8.8 1.6 61 0.0 35 33   101.48     LegendNANA
11:00 8.6 1.6 62 0.0 34 38   101.45     LegendNANA
12:00 7.4 1.4 66 0.0 2 25   101.45     LegendNANA
13:00 9.1 2.1 62 0.0 2 20   101.45     LegendNANA
14:00 9.3 2.0 60 0.0 2 22   101.41     LegendNANA
15:00 9.6 1.9 59 0.0 36 25   101.40     LegendNANA
16:00 9.0 1.6 60 0.0 2 18   101.36     LegendNANA
17:00 8.2 1.0 61 0.0 1 18   101.33     LegendNANA
18:00 8.8 1.0 58 0.0 35 21   101.33     LegendNANA
19:00 7.1 0.3 62 0.0 2 23   101.30     LegendNANA
20:00 6.1 -0.2 64 0.0 2 22   101.27     LegendNANA
21:00 4.8 0.3 72 0.0 1 10   101.28     LegendNANA
22:00 4.2 0.4 76 0.0 36 13   101.25     LegendNANA
23:00 4.2 0.5 77 0.0 17 4   101.21     LegendNANA

Notes on Data Quality.

Legend

  • E = Estimated
  • M = Missing
  • NA = Not Available*
  • [empty] = Indicates an unobserved value
Date modified: